Theta_e
355 353 351 351 351 349 348 351 351 351 354 353 354 356 353 354 351 351 349 348 348 348
353 351 350 350 352 352 352 353 352 353 352 352 353 352 352 348 350 349 350 347 349 348
352 353 351 349 350 351 352 353 353 353 355 354 355 353 350 349 349 347 349 348 346 348
347 343 343 344 345 347 349 350 350 350 351 353 353 354 351 348 348 347 347 347 344 346
340 340 338 339 341 344 345 347 346 346 345 345 347 351 352 350 349 348 344 344 346 345
337 337 336 336 335 337 338 339 342 342 343 342 342 343 345 348 349 348 346 347 344 344
329 329 329 329 330 330 332 332 335 336 338 341 343 342 342 342 341 343 344 344 345 346
327 327 326 325 325 326 327 326 327 328 329 333 336 339 337 337 336 337 339 342 341 343
322 322 322 323 324 323 322 322 321 320 321 323 328 331 333 333 333 335 337 336 338 340
321 320 320 319 319 320 318 319 318 318 318 318 319 324 323 327 324 330 335 335 335 337
317 319 320 321 322 321 321 320 320 318 318 318 318 320 321 324 323 327 332 335 333 335
319 320 320 318 318 320 320 318 317 317 317 317 317 319 320 321 321 323 328 332 334 334
319 318 318 318 318 319 319 316 316 317 317 318 315 318 319 319 326 326 326 328 330 331
317 318 318 316 316 316 316 315 313 313 315 315 315 318 314 314 315 315 321 324 327 329
Wind_Speed
3 2 2 1 1 3 2 3 3 5 5 6 6 6 6 6 6 6 2 9 8 8
3 2 3 2 2 3 4 3 3 3 4 6 6 6 6 5 7 6 6 10 12 8
5 3 5 4 5 6 6 4 5 5 5 5 5 5 6 5 5 6 5 8 8 5
8 9 10 9 7 8 10 9 7 6 5 5 5 6 5 6 6 6 6 6 6 10
7 7 8 7 9 10 12 11 9 7 7 7 7 7 6 6 5 6 6 6 4 6
12 12 12 11 11 11 11 9 10 11 10 7 7 7 7 7 7 7 6 6 6 7
10 9 8 7 9 9 9 10 9 10 10 11 10 8 8 8 8 8 8 7 7 6
7 7 8 9 9 9 9 9 10 10 11 10 10 8 10 8 6 7 9 7 7 7
7 8 9 11 10 7 9 9 9 10 10 11 9 16 19 15 12 8 6 8 8 7
10 9 7 7 7 8 7 7 8 10 9 9 10 16 21 23 11 10 7 6 7 6
7 8 8 8 8 9 9 9 10 11 12 12 10 18 18 19 12 9 9 7 7 7
8 8 9 9 9 8 7 9 10 9 12 12 12 20 19 20 8 8 8 6 6 7
7 7 6 6 8 7 6 9 9 10 11 15 12 15 18 19 8 8 7 7 7 8
5 6 6 7 6 7 7 7 10 10 11 11 12 13 19 21 9 8 8 7 7 5
Wind_Direction
60 49 2 352 308 303 296 309 300 277 230 233 238 236 236 231 229 236 116 262 222 229
179 231 254 277 289 290 291 285 267 284 249 253 249 246 245 238 243 254 180 243 252 241
207 227 222 232 260 264 263 267 274 276 267 261 271 276 267 254 246 247 223 224 241 263
43 52 55 40 25 15 5 341 324 304 302 271 278 275 264 267 267 261 252 239 213 226
46 25 40 23 10 12 10 2 347 347 343 342 316 296 264 267 270 267 271 266 249 247
36 31 32 30 18 13 5 351 352 350 343 325 320 319 313 283 259 250 249 251 247 250
31 26 18 12 9 2 354 352 352 348 335 335 330 322 302 317 304 282 263 248 242 238
23 17 15 8 4 358 358 352 344 341 339 332 331 322 343 329 315 325 313 261 253 248
28 11 8 8 0 358 349 345 346 342 336 334 332 334 335 350 334 305 301 309 287 258
22 19 7 347 341 337 333 331 327 324 325 323 327 332 330 326 323 313 283 282 283 279
6 351 341 341 354 352 348 341 333 334 331 326 322 320 314 309 307 299 282 269 279 268
339 348 353 350 345 338 339 343 339 328 324 323 324 317 315 317 292 287 280 262 270 278
350 337 325 330 338 337 334 337 337 330 330 324 325 326 2 3 5 349 336 323 300 283
342 351 10 352 349 351 347 338 348 345 337 340 343 358 13 3 5 339 333 332 322 309